Location: Sevilla
(37.3933°N, 5.9839°W)
Time: 03:25:28
(UTC+02:00)

Tiros 1 despin weight - Pass Details

Date: 28 June 2024
Orbit: 576 x 620 km, 48.2° (Epoch: 22 July)

Event Time Altitude Azimuth Distance (km) Brightness Sun altitude
Rises 17:38:02 0° 305° (NW) 2,896 ? 47.0°
Reaches altitude 10° 17:40:23 10° 309° (NW) 1,987 ? 46.5°
Maximum altitude 17:44:55 62° 30° (NNE) 696 ? 45.6°
Drops below altitude 10° 17:49:24 10° 112° (ESE) 1,965 ? 44.7°
Sets 17:51:43 0° 116° (ESE) 2,862 ? 44.3°
